This demonstration page uses our WeatherBlox Daily Observations layout. Learn more.

Left ArrowRight Arrow

Hourly Observations for June 23, 2017

Temp ( °F °C ) Dew Point ( °F °C ) Humidity (%) Winds ( mph kmh ) Pressure ( in mb ) Visibility ( mi km ) Precip ( " mm )
12:53 am 00:53 Clear 74 23.3 74 23.3 100 100 Calm 30.01 1016 10 16 0.00 0.00
1:53 am 01:53 Clear 74 23.3 74 23.3 100 100 Calm 30.00 1016 10 16 0.00 0.00
2:53 am 02:53 Clear 74 23.3 73 22.8 97 97 Calm 29.99 1016 10 16 0.00 0.00
3:53 am 03:53 Clear 74 23.3 73 22.8 97 97 Calm 29.98 1015 10 16 0.00 0.00
4:53 am 04:53 Clear 74 23.3 73 22.8 97 97 Calm 29.97 1015 10 16 0.00 0.00
5:53 am 05:53 Clear 73 22.8 73 22.8 100 100 Calm 29.98 1015 10 16 0.00 0.00
6:53 am 06:53 Sunny 73 22.8 73 22.8 100 100 SSW 3 6 29.98 1015 10 16 0.00 0.00
7:53 am 07:53 Sunny 74 23.3 73 22.8 97 97 SSW 6 9 29.98 1015 10 16 0.00 0.00
8:53 am 08:53 Sunny 77 25 73 22.8 88 88 S 9 15 29.98 1015 10 16 0.00 0.00
9:53 am 09:53 Sunny 79 26.1 72 22.2 79 79 SSW 9 15 29.98 1015 10 16 0.00 0.00
10:53 am 10:53 Partly Cloudy 81 27.2 72 22.2 74 74 S 12 19 29.98 1015 10 16 0.00 0.00
11:53 am 11:53 Mostly Sunny 82 27.8 72 22.2 72 72 S 12 19 29.98 1015 10 16 0.00 0.00
12:53 pm 12:53 Sunny 84 28.9 71 21.7 65 65 SSW 13 20 29.96 1015 10 16 0.00 0.00
1:53 pm 13:53 Mostly Sunny 86 30 70 21.1 59 59 S 18 30 29.94 1014 10 16 0.00 0.00
2:53 pm 14:53 Mostly Sunny 88 31.1 72 22.2 59 59 S 13 20 29.91 1013 10 16 0.00 0.00
3:53 pm 15:53 Mostly Cloudy 88 31.1 71 21.7 57 57 SSW 13 20 29.90 1013 10 16 0.00 0.00
4:53 pm 16:53 Mostly Cloudy 87 30.6 71 21.7 59 59 SSW 13 20 29.88 1012 10 16 0.00 0.00
5:53 pm 17:53 Partly Cloudy 88 31.1 71 21.7 57 57 SSW 13 20 29.86 1011 10 16 0.00 0.00
6:53 pm 18:53 Sunny 88 31.1 70 21.1 55 55 SW 16 26 29.86 1011 10 16 0.00 0.00
7:53 pm 19:53 Mostly Sunny 86 30 71 21.7 61 61 SW 9 15 29.88 1012 10 16 0.00 0.00
8:53 pm 20:53 Cloudy with Rain 76 24.4 73 22.8 91 91 W 14 22 29.93 1013 8 13 0.02 0.51
9:20 pm 21:20 Cloudy with Nearby Thunderstorms 74 23.3 74 23.3 100 100 SW 8 13 29.94 1014 4 6 0.10 2.54
9:35 pm 21:35 Cloudy with Light Rain 74 23.3 74 23.3 100 100 WSW 6 9 29.94 1014 10 16 0.10 2.54
9:53 pm 21:53 Mostly Cloudy with Light Rain 74 23.3 74 23.3 100 100 SW 5 7 29.94 1014 10 16 0.10 2.54
10:53 pm 22:53 Cloudy 74 23.3 74 23.3 100 100 SSW 6 9 29.96 1015 10 16 0.01 0.25
11:34 pm 23:34 Mostly Cloudy 73 22.8 73 22.8 100 100 Calm 29.94 1014 10 16 0.00 0.00
11:36 pm 23:36 Mostly Cloudy 73 22.8 73 22.8 100 100 SSW 3 6 29.94 1014 10 16 0.00 0.00
11:53 pm 23:53 Cloudy 73 22.8 73 22.8 100 100 SSW 7 11 29.95 1014 10 16 0.00 0.00

Powered by AerisWeather